QPF
0.00 0.00 0.00 0.00 0.00 0.00 0.00 0.00 0.00 0.00 0.00 0.00 0.00 0.00 0.00 0.00 0.00 0.00 0.00 0.00 0.00 0.00 0.00 0.00 0.00 0.00 0.00 0.00 0.00 0.00 0.00 0.01 0.00 0.00 0.01 0.02 0.04 0.09 0.20 0.09 0.00 0.00 0.00 0.00 0.00
0.00 0.00 0.00 0.00 0.00 0.00 0.00 0.00 0.00 0.00 0.00 0.00 0.00 0.00 0.00 0.00 0.00 0.00 0.00 0.00 0.00 0.00 0.00 0.00 0.00 0.00 0.00 0.00 0.00 0.00 0.03 0.00 0.00 0.00 0.00 0.03 0.07 0.06 0.08 0.01 0.00 0.00 0.00 0.00 0.00
0.00 0.00 0.00 0.00 0.00 0.00 0.00 0.00 0.00 0.00 0.00 0.00 0.00 0.00 0.00 0.00 0.00 0.00 0.00 0.00 0.00 0.00 0.00 0.00 0.00 0.00 0.00 0.00 0.00 0.00 0.00 0.00 0.00 0.00 0.00 0.02 0.06 0.04 0.02 0.01 0.00 0.00 0.00 0.00 0.00
0.00 0.00 0.00 0.00 0.00 0.00 0.00 0.00 0.00 0.00 0.00 0.00 0.00 0.00 0.00 0.00 0.00 0.00 0.00 0.00 0.00 0.00 0.00 0.00 0.00 0.00 0.00 0.00 0.00 0.00 0.00 0.00 0.00 0.00 0.00 0.01 0.00 0.01 0.02 0.00 0.00 0.00 0.00 0.00 0.00
0.00 0.00 0.00 0.00 0.00 0.00 0.00 0.00 0.00 0.00 0.00 0.00 0.00 0.00 0.00 0.00 0.00 0.00 0.00 0.00 0.00 0.00 0.00 0.00 0.00 0.00 0.00 0.00 0.00 0.00 0.00 0.00 0.00 0.02 0.00 0.00 0.00 0.00 0.01 0.00 0.00 0.00 0.00 0.00 0.00
0.00 0.00 0.00 0.00 0.00 0.00 0.00 0.00 0.00 0.00 0.00 0.00 0.00 0.00 0.00 0.00 0.00 0.00 0.00 0.00 0.00 0.00 0.00 0.00 0.00 0.00 0.00 0.00 0.00 0.00 0.00 0.00 0.00 0.00 0.00 0.00 0.00 0.00 0.00 0.00 0.00 0.00 0.00 0.00 0.00
0.00 0.00 0.00 0.00 0.00 0.00 0.00 0.00 0.00 0.00 0.00 0.00 0.00 0.00 0.00 0.00 0.00 0.00 0.00 0.00 0.00 0.00 0.00 0.00 0.00 0.00 0.00 0.00 0.00 0.00 0.00 0.00 0.00 0.00 0.00 0.00 0.00 0.00 0.00 0.01 0.00 0.00 0.00 0.00 0.00
0.00 0.00 0.00 0.00 0.00 0.00 0.00 0.00 0.00 0.00 0.00 0.00 0.00 0.00 0.00 0.00 0.00 0.00 0.00 0.00 0.00 0.00 0.00 0.00 0.00 0.00 0.00 0.00 0.00 0.00 0.00 0.00 0.00 0.00 0.00 0.00 0.00 0.00 0.00 0.00 0.00 0.00 0.00 0.00 0.00
0.00 0.00 0.00 0.00 0.00 0.00 0.00 0.00 0.00 0.00 0.00 0.00 0.00 0.00 0.00 0.00 0.00 0.00 0.00 0.00 0.00 0.00 0.00 0.00 0.00 0.00 0.00 0.00 0.00 0.00 0.00 0.00 0.00 0.00 0.00 0.00 0.00 0.00 0.00 0.00 0.00 0.00 0.00 0.00 0.00
0.00 0.00 0.00 0.00 0.00 0.00 0.00 0.00 0.00 0.00 0.00 0.00 0.00 0.00 0.00 0.00 0.00 0.00 0.00 0.00 0.00 0.00 0.00 0.00 0.00 0.00 0.00 0.00 0.00 0.00 0.00 0.00 0.00 0.00 0.00 0.00 0.00 0.00 0.00 0.00 0.00 0.00 0.00 0.00 0.00
0.00 0.00 0.00 0.00 0.00 0.00 0.00 0.00 0.00 0.00 0.00 0.00 0.00 0.00 0.00 0.00 0.00 0.00 0.00 0.00 0.00 0.00 0.00 0.00 0.00 0.00 0.00 0.00 0.00 0.00 0.00 0.00 0.00 0.00 0.00 0.00 0.00 0.00 0.00 0.00 0.00 0.00 0.00 0.00 0.00
0.00 0.00 0.00 0.00 0.00 0.00 0.00 0.00 0.00 0.00 0.00 0.00 0.00 0.00 0.00 0.00 0.00 0.00 0.00 0.00 0.00 0.00 0.00 0.00 0.00 0.00 0.00 0.00 0.00 0.00 0.00 0.00 0.00 0.00 0.00 0.00 0.00 0.00 0.00 0.00 0.00 0.00 0.00 0.00 0.00
0.00 0.00 0.00 0.00 0.00 0.00 0.00 0.00 0.00 0.00 0.00 0.00 0.00 0.00 0.00 0.00 0.00 0.00 0.00 0.00 0.00 0.00 0.00 0.00 0.00 0.00 0.00 0.00 0.00 0.00 0.00 0.00 0.00 0.00 0.00 0.00 0.02 0.01 0.02 0.01 0.00 0.00 0.00 0.00 0.00
0.00 0.00 0.00 0.00 0.00 0.00 0.00 0.00 0.00 0.00 0.00 0.00 0.00 0.00 0.00 0.00 0.00 0.00 0.00 0.00 0.00 0.00 0.00 0.00 0.00 0.00 0.00 0.00 0.00 0.00 0.00 0.00 0.00 0.00 0.00 0.00 0.01 0.00 0.00 0.00 0.00 0.00 0.00 0.00 0.00
0.00 0.00 0.00 0.00 0.00 0.00 0.00 0.00 0.00 0.00 0.00 0.00 0.00 0.00 0.00 0.00 0.00 0.00 0.00 0.00 0.00 0.00 0.00 0.00 0.00 0.00 0.00 0.00 0.00 0.00 0.00 0.00 0.00 0.00 0.00 0.00 0.00 0.00 0.00 0.00 0.00 0.00 0.00 0.00 0.00
0.00 0.00 0.00 0.00 0.00 0.00 0.00 0.00 0.00 0.00 0.00 0.00 0.00 0.00 0.00 0.00 0.00 0.00 0.00 0.00 0.00 0.00 0.00 0.00 0.00 0.00 0.00 0.00 0.00 0.00 0.00 0.00 0.00 0.00 0.00 0.00 0.00 0.00 0.00 0.00 0.00 0.00 0.00 0.00 0.00
0.00 0.00 0.00 0.00 0.00 0.00 0.00 0.00 0.00 0.00 0.00 0.00 0.00 0.00 0.00 0.00 0.00 0.00 0.00 0.00 0.00 0.00 0.00 0.00 0.00 0.00 0.00 0.00 0.00 0.00 0.00 0.00 0.00 0.00 0.00 0.00 0.00 0.00 0.00 0.00 0.00 0.00 0.00 0.00 0.00
0.00 0.00 0.00 0.00 0.00 0.00 0.00 0.00 0.00 0.00 0.00 0.00 0.00 0.00 0.00 0.00 0.00 0.00 0.00 0.00 0.00 0.00 0.00 0.00 0.00 0.00 0.00 0.00 0.00 0.00 0.00 0.00 0.00 0.00 0.00 0.00 0.00 0.00 0.00 0.00 0.00 0.00 0.00 0.00 0.00
0.00 0.00 0.00 0.00 0.00 0.00 0.00 0.00 0.00 0.00 0.00 0.00 0.00 0.00 0.00 0.00 0.00 0.00 0.00 0.00 0.00 0.00 0.00 0.00 0.00 0.00 0.00 0.00 0.00 0.00 0.00 0.00 0.00 0.00 0.00 0.00 0.00 0.00 0.00 0.00 0.00 0.00 0.00 0.00 0.00
0.00 0.00 0.00 0.00 0.00 0.00 0.00 0.00 0.00 0.00 0.00 0.00 0.00 0.00 0.00 0.00 0.00 0.00 0.00 0.00 0.00 0.00 0.00 0.00 0.00 0.00 0.00 0.00 0.00 0.00 0.00 0.00 0.00 0.00 0.00 0.00 0.00 0.00 0.00 0.00 0.00 0.00 0.00 0.00 0.00
0.00 0.00 0.00 0.00 0.00 0.00 0.00 0.00 0.00 0.00 0.00 0.00 0.00 0.00 0.00 0.00 0.00 0.00 0.00 0.00 0.00 0.00 0.00 0.00 0.00 0.00 0.00 0.00 0.00 0.00 0.00 0.00 0.00 0.00 0.00 0.00 0.00 0.00 0.00 0.00 0.00 0.00 0.00 0.00 0.00
0.00 0.00 0.00 0.00 0.00 0.00 0.00 0.00 0.00 0.00 0.00 0.00 0.00 0.00 0.00 0.00 0.00 0.00 0.00 0.00 0.00 0.00 0.00 0.00 0.00 0.00 0.00 0.00 0.00 0.00 0.00 0.00 0.00 0.00 0.00 0.00 0.00 0.00 0.00 0.00 0.00 0.00 0.00 0.00 0.00
0.00 0.00 0.00 0.00 0.00 0.00 0.00 0.00 0.00 0.00 0.00 0.00 0.00 0.00 0.00 0.00 0.00 0.00 0.00 0.00 0.00 0.00 0.00 0.01 0.00 0.00 0.00 0.00 0.00 0.00 0.00 0.00 0.00 0.00 0.00 0.00 0.00 0.00 0.00 0.00 0.00 0.00 0.00 0.00 0.00
0.00 0.00 0.00 0.00 0.00 0.00 0.00 0.00 0.00 0.00 0.00 0.00 0.00 0.00 0.00 0.00 0.00 0.00 0.00 0.00 0.00 0.00 0.01 0.01 0.00 0.00 0.00 0.00 0.00 0.00 0.00 0.00 0.00 0.00 0.00 0.00 0.00 0.00 0.00 0.00 0.00 0.00 0.00 0.00 0.00
0.00 0.00 0.00 0.00 0.00 0.00 0.00 0.00 0.00 0.00 0.00 0.00 0.00 0.00 0.00 0.00 0.00 0.00 0.00 0.00 0.00 0.00 0.00 0.00 0.00 0.00 0.00 0.00 0.00 0.00 0.00 0.00 0.00 0.00 0.00 0.00 0.00 0.00 0.00 0.00 0.00 0.00 0.00 0.00 0.00
0.00 0.00 0.00 0.00 0.00 0.00 0.00 0.00 0.00 0.01 0.00 0.00 0.00 0.00 0.01 0.00 0.00 0.00 0.00 0.00 0.00 0.00 0.00 0.00 0.00 0.00 0.00 0.00 0.00 0.00 0.00 0.00 0.00 0.00 0.00 0.00 0.00 0.00 0.00 0.00 0.00 0.00 0.00 0.00 0.00
0.00 0.00 0.00 0.00 0.00 0.00 0.00 0.00 0.00 0.00 0.00 0.00 0.00 0.00 0.00 0.00 0.00 0.00 0.00 0.00 0.00 0.00 0.00 0.00 0.00 0.00 0.00 0.00 0.00 0.00 0.00 0.00 0.00 0.00 0.00 0.00 0.00 0.00 0.00 0.00 0.00 0.00 0.00 0.00 0.00
MSLP
1018.64 1018.12 1017.59 1017.08 1016.54 1015.98 1015.43 1014.93 1014.41 1013.87 1013.60 1013.31 1012.94 1012.55 1012.13 1011.93 1011.65 1011.37 1010.24 1007.62 1007.47 1007.15 1007.40 1008.12 1008.79 1009.01 1009.28 1009.54 1009.37 1009.19 1009.67 1009.17 1007.90 1007.19 1007.19 1006.84 1007.00 1007.40 1008.15 1008.75 1009.11 1009.81 1010.39 1011.68 1012.83
1018.61 1018.03 1017.38 1016.75 1016.22 1015.70 1015.18 1014.55 1014.02 1013.60 1013.10 1012.78 1012.63 1012.37 1012.03 1011.77 1011.42 1009.91 1005.90 1005.99 1006.56 1006.80 1007.21 1007.85 1008.57 1008.96 1009.45 1009.34 1009.34 1009.27 1009.12 1007.70 1006.68 1006.54 1006.49 1006.49 1006.75 1007.19 1008.08 1008.67 1009.53 1010.07 1010.80 1012.02 1012.91
1018.52 1017.91 1017.25 1016.59 1015.83 1015.25 1014.74 1014.21 1013.64 1013.08 1012.75 1012.41 1012.20 1012.01 1011.77 1011.77 1011.05 1006.12 1003.51 1004.86 1005.68 1006.19 1006.68 1007.35 1008.12 1008.71 1009.21 1009.11 1008.96 1008.66 1007.85 1006.91 1006.32 1006.16 1006.15 1006.15 1006.57 1006.82 1007.87 1008.65 1009.17 1009.55 1010.62 1011.84 1012.88
1018.33 1017.69 1017.01 1016.26 1015.54 1014.88 1014.14 1013.41 1012.95 1012.62 1012.21 1011.92 1011.81 1011.58 1011.61 1011.64 1008.73 1004.16 1003.49 1004.29 1005.45 1006.20 1006.62 1007.29 1008.11 1008.69 1008.87 1008.78 1008.35 1008.19 1006.87 1006.40 1005.88 1005.85 1006.09 1006.31 1006.36 1006.65 1007.18 1007.45 1008.03 1009.21 1009.59 1010.93 1012.19
1018.24 1017.47 1016.69 1015.91 1015.17 1014.35 1013.55 1012.79 1012.28 1011.75 1011.51 1011.48 1011.41 1011.26 1011.56 1010.76 1007.11 1004.25 1004.13 1004.72 1005.68 1005.96 1006.20 1006.58 1007.42 1008.08 1008.23 1008.02 1007.97 1007.63 1006.49 1006.08 1005.63 1005.84 1005.80 1005.81 1006.07 1006.46 1007.00 1007.39 1008.41 1009.80 1010.77 1011.53 1011.99
1018.07 1017.26 1016.41 1015.43 1014.72 1013.73 1012.94 1012.12 1011.70 1011.27 1010.75 1010.72 1011.10 1011.28 1011.35 1009.46 1005.03 1004.87 1004.49 1005.23 1005.51 1005.81 1006.02 1006.33 1006.56 1006.97 1007.50 1007.45 1007.41 1006.37 1006.35 1005.53 1005.71 1005.47 1005.41 1005.45 1005.99 1006.32 1007.37 1008.01 1009.02 1009.79 1010.76 1011.53 1011.71
1018.16 1017.37 1016.46 1015.43 1014.45 1013.45 1012.46 1011.43 1010.99 1010.82 1010.08 1009.99 1010.69 1010.97 1010.89 1007.00 1005.12 1005.23 1005.50 1005.74 1005.44 1005.30 1005.80 1005.84 1006.02 1006.51 1006.82 1007.03 1006.54 1006.43 1006.36 1005.63 1005.13 1004.98 1005.03 1005.03 1005.95 1006.59 1007.13 1008.05 1008.89 1009.73 1010.53 1011.19 1011.57
1018.09 1017.19 1016.22 1015.28 1014.21 1013.29 1012.07 1010.87 1010.57 1010.29 1010.15 1010.26 1010.45 1010.53 1009.44 1006.47 1005.80 1005.29 1005.21 1005.20 1005.64 1005.85 1005.92 1005.65 1006.22 1006.52 1006.69 1006.53 1006.23 1006.25 1006.64 1006.17 1004.49 1004.55 1004.40 1004.59 1005.88 1006.94 1007.35 1007.90 1009.09 1009.87 1010.21 1010.51 1010.82
1017.90 1017.15 1016.07 1015.07 1013.90 1013.07 1011.63 1010.41 1009.93 1009.95 1010.09 1010.15 1010.40 1010.40 1008.00 1006.08 1005.77 1004.76 1004.71 1004.66 1004.97 1005.78 1006.07 1006.10 1006.69 1006.71 1006.77 1006.97 1007.15 1006.61 1006.41 1005.87 1004.75 1004.28 1004.56 1005.08 1006.00 1006.75 1007.62 1008.37 1009.23 1009.68 1010.01 1010.34 1010.60
1017.55 1016.61 1015.87 1014.49 1013.52 1012.58 1011.06 1009.71 1009.63 1009.96 1010.07 1010.13 1010.11 1010.32 1007.70 1006.39 1005.40 1004.75 1004.00 1004.05 1004.64 1005.69 1006.59 1006.57 1006.77 1006.78 1006.94 1007.10 1006.39 1006.56 1006.18 1005.43 1004.79 1004.29 1004.74 1005.40 1005.63 1006.53 1007.22 1007.81 1008.61 1009.17 1009.56 1009.83 1010.15
1017.51 1016.53 1015.67 1014.20 1013.42 1012.50 1011.41 1009.93 1010.61 1010.42 1009.94 1010.05 1009.57 1009.41 1007.58 1005.95 1005.01 1004.87 1003.98 1004.05 1004.18 1005.22 1006.09 1006.14 1006.62 1005.76 1004.43 1005.60 1006.17 1006.00 1005.75 1005.22 1004.25 1004.07 1004.57 1005.11 1005.56 1006.09 1006.88 1007.93 1008.11 1008.61 1008.95 1009.23 1009.24
1017.45 1016.54 1015.54 1014.12 1013.15 1012.36 1011.95 1011.90 1012.49 1012.71 1011.01 1009.33 1008.65 1008.47 1007.11 1006.51 1005.82 1004.99 1004.25 1004.37 1004.35 1004.77 1005.55 1006.07 1004.89 1004.63 1005.61 1005.94 1006.07 1005.93 1005.60 1004.99 1004.26 1003.92 1004.29 1004.77 1005.27 1005.84 1006.66 1006.55 1006.66 1007.71 1008.45 1008.50 1008.89
1017.32 1016.43 1015.41 1014.05 1013.03 1012.47 1012.69 1012.09 1012.23 1012.37 1012.27 1009.46 1008.32 1007.67 1006.85 1006.61 1006.23 1005.66 1005.36 1004.64 1004.45 1004.65 1004.56 1004.52 1003.69 1004.62 1004.90 1005.09 1005.39 1005.31 1005.11 1004.79 1004.34 1004.01 1003.90 1004.44 1005.49 1006.09 1006.55 1006.87 1006.91 1007.34 1007.43 1007.97 1008.01
1016.80 1015.89 1015.39 1014.31 1013.29 1013.52 1012.60 1011.78 1011.78 1011.81 1011.93 1009.57 1007.94 1007.40 1007.01 1006.29 1006.34 1006.14 1005.81 1005.62 1004.81 1004.45 1004.68 1004.14 1003.35 1003.50 1003.78 1003.87 1004.23 1004.49 1003.90 1004.39 1004.39 1004.84 1004.69 1004.29 1005.62 1005.87 1005.99 1005.92 1005.87 1005.91 1006.38 1006.93 1007.40
1016.87 1015.93 1015.36 1014.85 1014.39 1013.69 1012.35 1011.50 1011.12 1011.52 1011.12 1008.97 1008.43 1007.71 1007.85 1008.28 1007.84 1006.69 1006.23 1005.73 1005.76 1005.43 1004.83 1002.85 1002.53 1002.55 1002.73 1002.04 1003.09 1002.59 1003.52 1004.12 1004.29 1004.57 1005.07 1004.67 1005.11 1004.51 1005.00 1005.17 1004.91 1004.51 1004.71 1005.51 1006.23
1016.71 1015.66 1015.09 1014.63 1014.47 1013.31 1012.08 1011.34 1011.33 1012.14 1010.67 1009.41 1009.19 1008.91 1008.89 1008.94 1008.55 1008.01 1007.44 1006.87 1006.63 1006.15 1004.63 1004.19 1002.68 1001.75 1001.12 1001.90 1002.41 1002.69 1003.41 1004.20 1004.61 1005.18 1004.61 1004.39 1004.57 1003.90 1003.66 1003.26 1003.20 1003.23 1003.68 1004.20 1004.98
1016.44 1015.21 1014.57 1014.49 1013.95 1012.75 1011.90 1011.87 1012.59 1012.05 1010.88 1010.73 1010.42 1010.03 1010.00 1010.20 1009.65 1009.50 1009.24 1009.63 1009.69 1008.58 1007.47 1005.75 1003.13 1002.41 1001.54 1001.67 1002.11 1002.63 1003.49 1004.93 1005.52 1005.20 1003.64 1003.22 1003.62 1002.47 1001.53 1001.26 1001.23 1001.03 1001.59 1002.38 1003.44
1016.25 1014.93 1014.30 1013.67 1012.78 1012.57 1012.59 1012.98 1013.13 1012.40 1011.67 1011.26 1011.27 1011.10 1011.27 1011.38 1011.22 1011.13 1011.09 1011.34 1011.86 1011.27 1010.25 1008.93 1005.30 1003.01 1001.68 1001.19 1001.29 1001.78 1002.71 1003.74 1004.23 1004.19 1003.56 1002.76 1001.37 1000.12 999.74 999.59 999.34 999.35 1000.08 1002.26 1003.38
1016.15 1015.09 1014.33 1013.25 1012.57 1012.59 1013.49 1014.12 1013.68 1012.98 1012.29 1011.97 1012.00 1012.12 1012.34 1012.12 1012.02 1012.18 1012.16 1012.22 1012.70 1012.64 1012.36 1011.21 1008.31 1005.08 1003.55 1001.41 1000.87 1000.77 1001.13 1002.42 1003.33 1004.10 1003.51 1001.73 1000.76 999.47 998.72 998.56 998.66 998.88 1000.10 1000.64 1001.40
1017.29 1016.55 1014.81 1012.86 1012.47 1012.92 1014.19 1014.65 1013.94 1013.15 1012.56 1012.41 1012.65 1012.84 1012.98 1012.91 1012.81 1012.81 1012.63 1012.43 1012.77 1013.18 1013.43 1013.14 1011.21 1007.26 1004.65 1002.43 1000.45 999.80 1000.82 1002.09 1002.35 1003.10 1002.73 1001.23 1000.11 998.88 998.38 997.99 997.95 998.08 998.67 999.27 999.84
1017.83 1016.69 1013.95 1012.94 1012.74 1014.09 1015.30 1015.28 1014.23 1013.54 1013.04 1012.79 1012.83 1013.01 1013.31 1013.48 1013.33 1013.20 1012.82 1012.56 1012.80 1013.21 1013.67 1013.89 1012.98 1008.83 1006.95 1003.00 1000.70 1000.12 1000.04 1000.37 1001.28 1001.87 1001.58 1000.84 998.84 997.42 997.15 997.00 997.08 996.95 997.16 997.54 998.42
1019.03 1017.68 1014.56 1013.37 1014.64 1016.30 1016.66 1016.16 1015.04 1013.85 1013.25 1012.88 1012.79 1013.06 1013.44 1013.75 1013.72 1013.42 1013.03 1012.81 1013.05 1013.47 1013.96 1014.19 1013.43 1011.07 1007.63 1003.37 1002.90 1002.17 1000.43 1000.44 1000.31 1000.97 1000.88 1000.07 997.67 996.46 996.13 996.00 995.93 995.99 995.97 996.22 996.77
1019.88 1018.81 1015.66 1015.11 1017.15 1017.98 1017.70 1016.80 1015.46 1014.30 1013.88 1013.51 1013.52 1013.45 1013.65 1013.98 1014.15 1013.59 1013.18 1013.03 1013.48 1013.98 1014.58 1014.79 1013.83 1012.32 1007.86 1005.05 1003.02 1002.42 1000.26 999.70 999.92 999.90 999.67 999.31 996.45 996.19 996.15 995.88 995.80 995.86 995.42 995.50 995.91
1020.59 1019.79 1018.34 1018.12 1018.77 1019.19 1018.79 1017.25 1015.89 1014.63 1014.15 1014.12 1014.00 1013.82 1014.00 1014.15 1014.18 1013.98 1013.49 1013.11 1013.47 1014.03 1014.51 1014.90 1014.31 1013.37 1010.90 1008.30 1007.76 1005.30 1002.68 1001.06 999.83 999.78 998.88 996.85 997.57 996.57 995.92 995.88 995.51 994.97 995.09 994.71 994.77
1020.79 1020.80 1020.35 1019.82 1019.68 1019.62 1019.34 1018.21 1016.74 1015.67 1014.83 1014.81 1014.49 1014.33 1014.67 1014.63 1014.40 1014.07 1013.57 1013.33 1013.75 1014.17 1014.73 1015.24 1014.13 1013.38 1011.99 1009.68 1008.30 1006.21 1004.12 1002.13 1001.31 998.71 997.90 997.32 996.78 996.05 995.76 995.51 995.18 994.81 993.79 993.37 993.13
1020.92 1020.79 1020.59 1020.11 1019.75 1019.33 1018.89 1018.02 1017.13 1016.37 1016.23 1015.34 1015.07 1014.70 1014.75 1014.67 1014.26 1013.89 1013.74 1013.45 1013.33 1014.31 1014.66 1015.23 1014.17 1013.32 1010.92 1008.41 1006.91 1005.39 1003.31 1001.92 1000.63 999.13 998.06 997.35 996.23 995.17 995.33 995.65 995.75 994.99 993.61 993.07 992.53
1020.44 1020.37 1020.45 1019.95 1019.58 1019.36 1018.77 1017.95 1017.28 1017.03 1016.17 1015.37 1015.02 1014.76 1014.05 1013.32 1013.03 1012.87 1012.77 1012.64 1013.03 1013.55 1014.27 1014.85 1013.77 1013.44 1010.03 1006.57 1005.07 1004.81 1003.37 1001.52 999.60 999.73 999.27 998.63 997.62 996.86 996.64 996.87 996.91 995.61 994.13 993.28 992.42
Thickness
5711 5714 5717 5720 5724 5727 5731 5734 5738 5743 5744 5746 5751 5755 5758 5759 5761 5763 5770 5796 5797 5802 5801 5794 5789 5787 5787 5781 5787 5790 5758 5752 5772 5779 5782 5798 5794 5806 5798 5788 5793 5791 5785 5783 5777
5708 5711 5715 5719 5723 5727 5730 5734 5739 5742 5746 5748 5749 5753 5756 5758 5759 5766 5806 5804 5803 5800 5796 5787 5778 5779 5769 5776 5780 5771 5756 5772 5795 5799 5790 5797 5799 5797 5789 5786 5780 5779 5785 5782 5777
5704 5707 5712 5716 5721 5725 5729 5734 5738 5742 5746 5749 5750 5752 5754 5754 5755 5791 5822 5811 5806 5800 5799 5792 5785 5779 5767 5776 5778 5776 5767 5786 5795 5802 5799 5797 5794 5802 5786 5774 5781 5779 5780 5778 5774
5700 5704 5709 5714 5719 5724 5729 5735 5738 5741 5744 5747 5749 5750 5751 5750 5762 5807 5819 5813 5804 5798 5793 5786 5778 5767 5763 5764 5780 5766 5791 5796 5799 5803 5798 5788 5797 5794 5795 5793 5801 5793 5794 5784 5776
5696 5701 5707 5712 5717 5723 5728 5734 5738 5742 5744 5744 5747 5749 5747 5748 5763 5806 5809 5804 5797 5794 5787 5782 5773 5767 5762 5767 5776 5773 5787 5797 5800 5795 5796 5801 5793 5791 5795 5802 5800 5791 5783 5777 5777
5694 5699 5705 5711 5716 5723 5728 5733 5736 5739 5743 5743 5741 5742 5743 5740 5791 5796 5800 5793 5790 5787 5784 5782 5778 5775 5764 5766 5772 5787 5785 5791 5793 5795 5799 5795 5793 5798 5796 5799 5791 5786 5780 5777 5779
5689 5693 5699 5706 5713 5720 5727 5733 5736 5736 5741 5742 5737 5737 5736 5756 5786 5786 5783 5781 5786 5785 5776 5782 5781 5775 5771 5767 5783 5779 5770 5783 5794 5797 5796 5806 5789 5786 5801 5798 5789 5785 5783 5781 5779
5684 5688 5694 5700 5708 5713 5722 5732 5733 5734 5733 5733 5732 5733 5735 5766 5772 5776 5780 5778 5779 5776 5773 5777 5774 5769 5767 5774 5773 5765 5761 5747 5791 5797 5805 5806 5773 5787 5799 5794 5784 5782 5784 5784 5785
5679 5682 5688 5695 5702 5707 5717 5726 5729 5727 5725 5726 5725 5723 5731 5762 5760 5774 5778 5773 5771 5767 5765 5767 5760 5755 5759 5745 5734 5744 5734 5750 5773 5798 5794 5792 5776 5791 5794 5789 5783 5782 5783 5781 5783
5673 5678 5681 5691 5697 5702 5713 5722 5721 5716 5712 5715 5717 5713 5737 5741 5754 5761 5775 5771 5762 5753 5743 5743 5740 5732 5730 5724 5725 5728 5739 5755 5762 5787 5787 5777 5780 5789 5791 5791 5786 5784 5782 5784 5784
5663 5667 5670 5680 5684 5689 5698 5708 5694 5691 5696 5697 5702 5704 5722 5740 5750 5745 5759 5755 5754 5741 5723 5733 5717 5729 5761 5753 5751 5751 5753 5755 5775 5789 5777 5777 5779 5784 5786 5784 5787 5785 5785 5785 5786
5653 5656 5658 5667 5670 5674 5675 5672 5664 5660 5659 5687 5692 5695 5712 5722 5711 5728 5745 5735 5733 5723 5727 5714 5721 5752 5745 5740 5738 5739 5739 5746 5769 5784 5779 5775 5779 5783 5783 5789 5795 5788 5785 5786 5784
5639 5640 5641 5646 5651 5651 5644 5648 5645 5641 5635 5658 5674 5682 5694 5701 5694 5700 5715 5723 5722 5717 5722 5716 5741 5743 5738 5735 5730 5731 5733 5746 5756 5772 5782 5773 5759 5764 5779 5785 5790 5792 5792 5790 5790
5629 5630 5628 5632 5637 5629 5633 5637 5634 5630 5605 5634 5654 5658 5672 5682 5673 5692 5694 5700 5707 5709 5714 5713 5746 5734 5731 5729 5739 5718 5761 5758 5758 5744 5728 5770 5714 5751 5769 5778 5788 5797 5793 5795 5793
5617 5618 5615 5615 5615 5621 5632 5633 5634 5624 5591 5634 5631 5648 5646 5639 5647 5664 5676 5680 5677 5687 5700 5719 5735 5727 5724 5746 5746 5752 5757 5750 5756 5744 5738 5748 5724 5746 5770 5766 5785 5800 5806 5805 5803
5608 5610 5610 5613 5611 5618 5625 5628 5623 5594 5589 5614 5617 5612 5614 5615 5623 5638 5643 5655 5665 5667 5696 5703 5728 5734 5747 5750 5744 5759 5744 5739 5741 5723 5702 5737 5736 5731 5763 5783 5795 5805 5809 5810 5809
5603 5608 5610 5608 5611 5615 5619 5612 5587 5580 5605 5594 5591 5596 5595 5589 5597 5603 5610 5602 5604 5627 5628 5663 5707 5722 5736 5722 5732 5733 5709 5677 5674 5679 5701 5749 5724 5751 5789 5806 5811 5816 5824 5822 5819
5598 5606 5606 5606 5607 5604 5600 5588 5581 5588 5587 5588 5581 5580 5573 5573 5576 5576 5580 5577 5578 5590 5599 5599 5661 5705 5723 5721 5718 5717 5706 5675 5660 5672 5701 5747 5717 5755 5807 5823 5828 5836 5831 5817 5810
5593 5597 5598 5600 5600 5597 5582 5556 5564 5569 5572 5568 5563 5556 5551 5560 5565 5563 5559 5561 5566 5568 5573 5583 5622 5665 5685 5725 5731 5718 5708 5729 5700 5699 5705 5742 5745 5786 5806 5818 5823 5825 5820 5818 5822
5578 5573 5582 5594 5593 5582 5562 5553 5554 5559 5559 5555 5544 5545 5538 5540 5545 5541 5549 5556 5556 5556 5554 5565 5585 5636 5666 5696 5723 5730 5732 5703 5693 5678 5678 5711 5733 5752 5787 5808 5820 5825 5825 5828 5831
5564 5564 5585 5585 5581 5558 5543 5535 5545 5546 5544 5540 5533 5531 5529 5526 5530 5529 5533 5545 5542 5543 5541 5544 5558 5616 5632 5672 5710 5716 5716 5721 5719 5701 5703 5693 5728 5781 5798 5818 5821 5834 5842 5845 5843
5545 5553 5572 5573 5546 5520 5522 5522 5530 5532 5531 5529 5528 5523 5518 5515 5513 5518 5519 5520 5522 5529 5528 5534 5542 5584 5615 5675 5684 5682 5714 5709 5712 5694 5695 5708 5745 5804 5810 5821 5833 5840 5850 5856 5857
5536 5528 5553 5551 5515 5500 5504 5509 5516 5517 5514 5512 5508 5509 5506 5502 5498 5502 5504 5503 5501 5510 5507 5520 5534 5560 5628 5662 5678 5677 5720 5737 5730 5712 5705 5719 5754 5798 5803 5816 5823 5829 5844 5854 5856
5527 5521 5521 5515 5498 5490 5479 5495 5501 5507 5504 5498 5495 5495 5492 5487 5480 5484 5487 5494 5489 5495 5505 5512 5516 5532 5580 5612 5607 5630 5663 5694 5722 5715 5715 5742 5754 5777 5798 5809 5822 5833 5839 5851 5857
5513 5509 5503 5496 5487 5479 5470 5468 5481 5484 5490 5483 5480 5482 5471 5463 5466 5466 5475 5482 5478 5480 5487 5493 5514 5525 5554 5583 5602 5625 5649 5672 5677 5729 5730 5754 5749 5776 5792 5810 5825 5832 5844 5852 5864
5510 5503 5493 5495 5491 5483 5476 5469 5469 5469 5457 5466 5458 5464 5457 5448 5454 5459 5462 5464 5476 5462 5473 5483 5510 5522 5560 5603 5617 5630 5663 5678 5694 5725 5740 5755 5763 5796 5809 5811 5810 5821 5841 5852 5864
5510 5504 5495 5495 5487 5477 5471 5465 5460 5450 5453 5457 5454 5448 5452 5457 5463 5465 5463 5467 5463 5455 5462 5480 5504 5512 5554 5622 5643 5644 5657 5676 5715 5707 5727 5739 5763 5777 5782 5789 5795 5814 5835 5852 5867